Location: Newark
(40.7360°N, 74.1730°W)
Time: 02:39:39
(UTC-04:00)

Amateur Radio Satellites - All Passes

Search period start: 23 October 2014 02:09
Search period end: 24 October 2014 02:09
Location: Newark, 40.7360°N, 74.1730°W

Satellite Date Start Highest point End Downlink Frequencies (MHz)
Time Altitude Azimuth
Oscar 19 23 Oct 02:18:39 02:23:42 56° 101° (E) 02:28:42 437.125 CW, 437.150 USB
AO-27 23 Oct 02:31:17 02:35:52 30° 96° (E) 02:40:25 436.795 MHz FM
Oscar 16 23 Oct 03:04:08 03:09:07 53° 288° (WNW) 03:14:05 437.025 USB, Beacon 2401.1428
JAS-1B 23 Oct 03:04:50 03:11:23 81° 286° (WNW) 03:19:15 435.800 - 435.900 CW/SSB
Sapphire 23 Oct 03:05:07 03:06:15 11° 101° (ESE) 03:07:24 437.095 MHz 1200 baud AX-25 AFSK
AO-Echo 23 Oct 03:16:01 03:21:20 79° 285° (WNW) 03:26:39 ?
Uribyol 2 23 Oct 03:19:41 03:24:56 90° 103° (ESE) 03:30:07 436.500 FM
RS-15 23 Oct 03:23:33 03:30:56 20° 356° (N) 03:38:25 29.354 - 29.394 USB, Beacon 29.352 USB
PCSat 23 Oct 03:24:57 03:28:43 20° 105° (ESE) 03:32:31 145.825 MHz
ITAMSAT 1 23 Oct 03:25:09 03:30:25 86° 285° (WNW) 03:35:38 435.822 SSB
Gurwin Techsat 1B 23 Oct 03:32:34 03:37:50 59° 101° (E) 03:43:04 435.225 FM
AO-7 23 Oct 03:35:31 03:39:26 14° 88° (E) 03:43:21 29.400 - 29.500 MHz
TMSAT-1 23 Oct 03:45:12 03:50:27 58° 101° (E) 03:55:39 436.925 FM
Oscar 19 23 Oct 03:59:09 04:02:35 18° 297° (WNW) 04:06:00 437.125 CW, 437.150 USB
OPAL 23 Oct 04:01:37 04:05:18 20° 61° (ENE) 04:08:57 ?
AO-27 23 Oct 04:10:42 04:15:21 33° 292° (WNW) 04:19:58 436.795 MHz FM
Sapphire 23 Oct 04:43:24 04:48:48 87° 118° (ESE) 04:54:15 437.095 MHz 1200 baud AX-25 AFSK
AO-Echo 23 Oct 04:57:57 04:59:13 11° 302° (WNW) 05:00:29 ?
JAS-1B 23 Oct 04:58:07 05:01:19 14° 302° (WNW) 05:04:44 435.800 - 435.900 CW/SSB
Uosat F 23 Oct 04:59:19 05:04:06 41° 99° (E) 05:08:51 435.120 FM
Uribyol 2 23 Oct 05:01:38 05:03:37 12° 302° (WNW) 05:05:34 436.500 FM
PCSat 23 Oct 05:06:20 05:11:39 57° 303° (WNW) 05:17:01 145.825 MHz
ITAMSAT 1 23 Oct 05:07:22 05:09:05 12° 302° (WNW) 05:10:47 435.822 SSB
Gurwin Techsat 1B 23 Oct 05:13:44 05:17:18 19° 298° (WNW) 05:20:51 435.225 FM
JAS-2 23 Oct 05:15:50 05:21:56 25° 91° (E) 05:28:01 435.800 - 435.900 CW/SSB, 435.910 FM
AO-7 23 Oct 05:25:05 05:33:26 77° 106° (ESE) 05:41:47 29.400 - 29.500 MHz
TMSAT-1 23 Oct 05:26:16 05:29:53 19° 297° (WNW) 05:33:30 436.925 FM
OPAL 23 Oct 05:38:45 05:43:47 53° 257° (WSW) 05:48:47 ?
RS-15 23 Oct 05:39:01 05:48:25 30° 31° (NNE) 05:58:03 29.354 - 29.394 USB, Beacon 29.352 USB
STRAND 1 23 Oct 05:42:57 05:46:23 18° 62° (ENE) 05:49:50 ?
Hamsat 23 Oct 05:54:17 05:57:20 19° 93° (E) 06:00:24 145.90 MHz
Sapphire 23 Oct 06:29:32 06:32:58 17° 318° (NW) 06:36:25 437.095 MHz 1200 baud AX-25 AFSK
Uosat F 23 Oct 06:38:40 06:42:37 24° 295° (WNW) 06:46:34 435.120 FM
PCSat 23 Oct 06:54:40 06:56:17 11° 324° (NW) 06:57:55 145.825 MHz
JAS-2 23 Oct 06:59:43 07:07:25 71° 287° (WNW) 07:15:11 435.800 - 435.900 CW/SSB, 435.910 FM
AO-7 23 Oct 07:19:02 07:25:24 26° 306° (NW) 07:31:47 29.400 - 29.500 MHz
STRAND 1 23 Oct 07:20:04 07:25:06 57° 259° (W) 07:30:11 ?
Hamsat 23 Oct 07:29:35 07:33:21 33° 289° (WNW) 07:37:08 145.90 MHz
RS-15 23 Oct 07:51:22 08:02:37 84° 58° (ENE) 08:14:20 29.354 - 29.394 USB, Beacon 29.352 USB
HO-68 23 Oct 08:18:38 08:20:58 12° 87° (E) 08:23:18 435.675 MHz FM
Saudisat 1A 23 Oct 08:27:47 08:32:10 85° 302° (WNW) 08:36:36 436.775 MHz
SO-67 23 Oct 08:28:12 08:31:29 42° 286° (WNW) 08:34:45 435.3500 MHz FM
JAS-2 23 Oct 08:47:00 08:51:09 16° 305° (NW) 08:55:23 435.800 - 435.900 CW/SSB, 435.910 FM
Oscar 11 23 Oct 09:38:57 09:41:24 15° 92° (E) 09:43:50 145.825 FM, Beacon 2401.500 USB
HO-68 23 Oct 10:02:32 10:09:46 75° 105° (ESE) 10:16:57 435.675 MHz FM
RS-15 23 Oct 10:05:16 10:13:42 25° 258° (WSW) 10:22:25 29.354 - 29.394 USB, Beacon 29.352 USB
Saudisat 1A 23 Oct 10:10:22 10:12:25 13° 322° (NW) 10:14:29 436.775 MHz
PANSAT 23 Oct 10:18:23 10:20:13 13° 181° (S) 10:22:03 not established
MaSat-1 23 Oct 10:18:38 10:21:04 35° 249° (WSW) 10:23:19 437.345 MHz
ZACube-1 23 Oct 10:22:41 10:25:41 18° 93° (E) 10:28:37 437.345 MHz
UKube-1 23 Oct 10:30:22 10:34:42 60° 101° (ESE) 10:39:00 145.840 MHz, 145.915 MHz
FUNcube-1 23 Oct 11:06:57 11:11:11 59° 100° (E) 11:15:18 145.950 - 145.970 MHz USB
Oscar 11 23 Oct 11:13:42 11:17:50 46° 287° (WNW) 11:21:56 145.825 FM, Beacon 2401.500 USB
Sapphire 23 Oct 11:50:21 11:52:37 12° 38° (NE) 11:54:52 437.095 MHz 1200 baud AX-25 AFSK
HO-68 23 Oct 11:51:30 11:56:44 22° 303° (WNW) 12:01:58 435.675 MHz FM
ZACube-1 23 Oct 11:58:18 12:02:13 35° 289° (WNW) 12:06:02 437.345 MHz
Oscar 19 23 Oct 12:01:20 12:01:52 10° 58° (ENE) 12:02:24 437.125 CW, 437.150 USB
JAS-1B 23 Oct 12:05:40 12:07:22 11° 56° (ENE) 12:09:03 435.800 - 435.900 CW/SSB
UKube-1 23 Oct 12:08:16 12:10:22 13° 298° (WNW) 12:12:29 145.840 MHz, 145.915 MHz
PCSat 23 Oct 12:12:07 12:15:52 19° 44° (NE) 12:19:36 145.825 MHz
KITSAT 1 23 Oct 12:24:28 12:32:17 56° 113° (ESE) 12:40:07 435.175 FM
ISS 23 Oct 12:25:30 12:27:20 14° 130° (SE) 12:29:09 145.800 FM
Oscar 16 23 Oct 12:42:33 12:46:48 26° 66° (ENE) 12:51:02 437.025 USB, Beacon 2401.1428
FUNcube-1 23 Oct 12:45:12 12:47:01 13° 297° (WNW) 12:48:50 145.950 - 145.970 MHz USB
AO-Echo 23 Oct 12:52:32 12:55:25 16° 61° (ENE) 12:58:22 ?
Uribyol 2 23 Oct 13:00:14 13:03:34 17° 62° (ENE) 13:06:54 436.500 FM
ITAMSAT 1 23 Oct 13:05:41 13:09:08 18° 62° (ENE) 13:12:36 435.822 SSB
Gurwin Techsat 1B 23 Oct 13:17:29 13:19:32 12° 58° (ENE) 13:21:35 435.225 FM
TMSAT-1 23 Oct 13:30:04 13:31:52 12° 58° (ENE) 13:33:41 436.925 FM
Sapphire 23 Oct 13:31:43 13:37:08 65° 59° (ENE) 13:42:30 437.095 MHz 1200 baud AX-25 AFSK
Oscar 19 23 Oct 13:35:11 13:40:20 79° 75° (ENE) 13:45:30 437.125 CW, 437.150 USB
SO-50 23 Oct 13:41:46 13:46:16 90° 307° (NW) 13:50:54 436.795 FM
AO-27 23 Oct 13:49:03 13:53:59 45° 70° (ENE) 13:58:56 436.795 MHz FM
JAS-1B 23 Oct 13:51:08 13:57:14 86° 75° (ENE) 14:02:56 435.800 - 435.900 CW/SSB
PCSat 23 Oct 13:54:28 13:59:55 77° 243° (WSW) 14:05:18 145.825 MHz
ISS 23 Oct 14:00:21 14:03:39 65° 325° (NW) 14:06:59 145.800 FM
Oscar 10/S400 23 Oct 14:13:47 14:31:31 41° 155° (SSE) 14:56:12 145.825 - 145.975 CW/USB, Beacon 145.810 USB
KITSAT 1 23 Oct 14:20:39 14:28:00 37° 314° (NW) 14:35:23 435.175 FM
Oscar 16 23 Oct 14:21:11 14:25:57 38° 262° (W) 14:30:45 437.025 USB, Beacon 2401.1428
AO-Echo 23 Oct 14:28:48 14:33:36 63° 259° (W) 14:38:36 ?
AO-7 23 Oct 14:33:56 14:39:58 23° 53° (NE) 14:46:00 29.400 - 29.500 MHz
Uribyol 2 23 Oct 14:37:21 14:42:30 63° 258° (WSW) 14:47:42 436.500 FM
ITAMSAT 1 23 Oct 14:43:01 14:48:08 59° 259° (W) 14:53:19 435.822 SSB
Gurwin Techsat 1B 23 Oct 14:53:23 14:58:42 89° 76° (ENE) 15:04:03 435.225 FM
TMSAT-1 23 Oct 15:05:39 15:10:57 86° 75° (ENE) 15:16:18 436.925 FM
UOSAT-12 23 Oct 15:13:55 15:18:31 72° 120° (ESE) 15:23:14 437.025 FM, 437.400 FM
Sapphire 23 Oct 15:16:34 15:19:58 17° 256° (WSW) 15:23:22 437.095 MHz 1200 baud AX-25 AFSK
Saudisat 1A 23 Oct 15:17:22 15:18:44 11° 36° (NE) 15:20:06 436.775 MHz
Oscar 19 23 Oct 15:18:26 15:20:14 12° 271° (W) 15:22:03 437.125 CW, 437.150 USB
SO-50 23 Oct 15:25:01 15:27:31 14° 322° (NW) 15:30:04 436.795 FM
AO-27 23 Oct 15:29:42 15:33:41 22° 266° (W) 15:37:41 436.795 MHz FM
ISS 23 Oct 15:38:34 15:40:51 17° 344° (NNW) 15:43:09 145.800 FM
JAS-1B 23 Oct 15:47:23 15:48:37 11° 270° (W) 15:49:49 435.800 - 435.900 CW/SSB
Uosat F 23 Oct 16:12:13 16:17:06 56° 72° (ENE) 16:22:02 435.120 FM
KITSAT 1 23 Oct 16:22:49 16:26:13 13° 341° (NNW) 16:29:39 435.175 FM
AO-7 23 Oct 16:23:30 16:31:48 84° 252° (WSW) 16:40:08 29.400 - 29.500 MHz
Gurwin Techsat 1B 23 Oct 16:38:26 16:39:21 10° 272° (W) 16:40:15 435.225 FM
Hamsat 23 Oct 16:48:20 16:50:39 15° 65° (ENE) 16:52:57 145.90 MHz
TMSAT-1 23 Oct 16:50:08 16:51:32 11° 272° (W) 16:52:55 436.925 FM
Saudisat 1A 23 Oct 16:54:42 16:59:08 69° 56° (NE) 17:03:31 436.775 MHz
UOSAT-12 23 Oct 16:56:02 16:59:11 18° 319° (NW) 17:02:23 437.025 FM, 437.400 FM
JAS-2 23 Oct 17:11:40 17:17:18 51° 69° (ENE) 17:23:42 435.800 - 435.900 CW/SSB, 435.910 FM
ISS 23 Oct 17:16:54 17:18:35 13° 5° (N) 17:20:16 145.800 FM
OPAL 23 Oct 17:49:00 17:53:40 40° 100° (E) 17:58:17 ?
Uosat F 23 Oct 17:53:06 17:56:14 16° 268° (W) 17:59:23 435.120 FM
AO-7 23 Oct 18:21:05 18:25:41 16° 271° (W) 18:30:18 29.400 - 29.500 MHz
Hamsat 23 Oct 18:22:06 18:26:11 49° 261° (W) 18:30:16 145.90 MHz
KITSAT 1 23 Oct 18:23:57 18:26:11 11° 13° (NNE) 18:28:24 435.175 FM
Saudisat 1A 23 Oct 18:36:25 18:38:06 12° 252° (WSW) 18:39:48 436.775 MHz
HO-68 23 Oct 18:50:00 18:51:14 11° 48° (NE) 18:52:28 435.675 MHz FM
ISS 23 Oct 18:53:12 18:56:08 28° 25° (NNE) 18:59:04 145.800 FM
JAS-2 23 Oct 18:58:08 19:02:48 24° 270° (W) 19:07:56 435.800 - 435.900 CW/SSB, 435.910 FM
SO-67 23 Oct 19:00:07 19:03:27 51° 75° (ENE) 19:06:48 435.3500 MHz FM
OPAL 23 Oct 19:28:23 19:32:19 24° 297° (WNW) 19:36:14 ?
STRAND 1 23 Oct 19:30:55 19:35:56 50° 100° (E) 19:40:54 ?
AO-40 23 Oct 19:57:26 23:15:33 27° 123° (ESE) 00:37:46 Beacon 2401.320
KITSAT 1 23 Oct 20:18:04 20:24:55 29° 41° (NE) 20:31:42 435.175 FM
ISS 23 Oct 20:29:44 20:32:55 42° 222° (SW) 20:36:05 145.800 FM
HO-68 23 Oct 20:30:27 20:37:22 55° 68° (ENE) 20:44:20 435.675 MHz FM
SO-50 23 Oct 20:34:36 20:36:59 14° 37° (NE) 20:39:23 436.795 FM
Oscar 11 23 Oct 20:34:51 20:36:40 13° 63° (ENE) 20:38:29 145.825 FM, Beacon 2401.500 USB
STRAND 1 23 Oct 21:11:00 21:14:45 21° 296° (WNW) 21:18:29 ?
ZACube-1 23 Oct 21:19:09 21:22:08 17° 65° (ENE) 21:25:06 437.345 MHz
UKube-1 23 Oct 21:25:24 21:29:35 50° 72° (ENE) 21:33:49 145.840 MHz, 145.915 MHz
FUNcube-1 23 Oct 22:02:32 22:06:56 47° 73° (ENE) 22:11:17 145.950 - 145.970 MHz USB
UOSAT-12 23 Oct 22:06:18 22:07:21 11° 34° (NNE) 22:08:24 437.025 FM, 437.400 FM
Oscar 11 23 Oct 22:08:01 22:12:19 63° 259° (W) 22:16:37 145.825 FM, Beacon 2401.500 USB
KITSAT 1 23 Oct 22:13:02 22:21:06 77° 243° (WSW) 22:29:08 435.175 FM
SO-50 23 Oct 22:13:31 22:18:22 75° 57° (ENE) 22:23:15 436.795 FM
RS-15 23 Oct 22:14:19 22:24:56 57° 113° (ESE) 22:35:27 29.354 - 29.394 USB, Beacon 29.352 USB
HO-68 23 Oct 22:19:24 22:25:22 28° 265° (W) 22:31:23 435.675 MHz FM
ZACube-1 23 Oct 22:53:42 22:58:09 48° 261° (W) 23:02:34 437.345 MHz
UKube-1 23 Oct 23:03:41 23:06:03 14° 268° (W) 23:08:26 145.840 MHz, 145.915 MHz
FUNcube-1 23 Oct 23:40:35 23:43:31 17° 268° (W) 23:46:26 145.950 - 145.970 MHz USB
UOSAT-12 23 Oct 23:43:53 23:48:33 57° 54° (NE) 23:53:07 437.025 FM, 437.400 FM
MaSat-1 23 Oct 23:54:25 23:58:28 48° 112° (ESE) 00:02:11 437.345 MHz
SO-50 23 Oct 23:56:04 23:58:20 13° 252° (WSW) 00:00:35 436.795 FM
KITSAT 1 24 Oct 00:11:31 00:15:08 14° 261° (W) 00:18:45 435.175 FM
RS-15 24 Oct 00:27:13 00:37:34 45° 316° (NW) 00:47:59 29.354 - 29.394 USB, Beacon 29.352 USB
UOSAT-12 24 Oct 01:25:16 01:28:13 17° 251° (WSW) 01:31:08 437.025 FM, 437.400 FM
MaSat-1 24 Oct 01:31:50 01:34:17 15° 305° (NW) 01:36:37 437.345 MHz
JAS-1B 24 Oct 01:34:08 01:39:36 25° 96° (E) 01:45:46 435.800 - 435.900 CW/SSB
Oscar 19 24 Oct 01:47:35 01:51:58 28° 95° (E) 01:56:18 437.125 CW, 437.150 USB
